This is the latest recevied weather packets stored in our database for station/object EA3KZ-1. If no packets are shown the sender has not sent any weather packets the latest 10 day(s).
| Time | Temp. | Humidity | Pressure | Rain* | Wind** | Luminosity | Snow |
|---|---|---|---|---|---|---|---|
| 1777502425 | 16.11° C | 74% | 1010.7 hPa | 0 mm | - | - | - |
| 1777501823 | 16.11° C | 74% | 1010.9 hPa | 0 mm | - | - | - |
| 1777501220 | 16.11° C | 73% | 1010.9 hPa | 0 mm | - | - | - |
| 1777500617 | 16.11° C | 72% | 1010.8 hPa | 0 mm | - | - | - |
| 1777500015 | 16.67° C | 71% | 1010.8 hPa | 0 mm | - | - | - |
| 1777499472 | 16.67° C | 70% | 1010.9 hPa | 0 mm | - | - | - |
| 1777498869 | 16.67° C | 70% | 1010.7 hPa | 0 mm | - | - | - |
| 1777498267 | 16.67° C | 70% | 1010.6 hPa | 0 mm | - | - | - |
| 1777497664 | 16.67° C | 70% | 1010.6 hPa | 0 mm | - | - | - |
| 1777497061 | 16.67° C | 71% | 1010.5 hPa | 0 mm | - | - | - |
| 1777496458 | 16.67° C | 71% | 1010.4 hPa | 0 mm | - | - | - |
| 1777495856 | 16.11° C | 71% | 1010.4 hPa | 0 mm | - | - | - |
| 1777495253 | 16.11° C | 72% | 1010.3 hPa | 0 mm | - | - | - |
| 1777494651 | 16.11° C | 73% | 1010.2 hPa | 0 mm | - | - | - |
| 1777494048 | 16.11° C | 73% | 1010.2 hPa | 0 mm | - | - | - |
| 1777493445 | 16.67° C | 67% | 1010.1 hPa | 0 mm | - | - | - |
| 1777492843 | 16.67° C | 65% | 1010.1 hPa | 0 mm | - | - | - |
| 1777492240 | 16.67° C | 63% | 1009.9 hPa | 0 mm | - | - | - |
| 1777491638 | 16.67° C | 62% | 1009.8 hPa | 0 mm | - | - | - |
| 1777491035 | 16.67° C | 67% | 1009.6 hPa | 0 mm | - | - | - |
| 1777490432 | 17.22° C | 70% | 1009.5 hPa | 0 mm | - | - | - |
| 1777489830 | 17.78° C | 70% | 1009.4 hPa | 0 mm | - | - | - |
| 1777489227 | 18.33° C | 68% | 1009 hPa | 0 mm | - | - | - |
| 1777488625 | 18.33° C | 68% | 1008.8 hPa | 0 mm | - | - | - |
| 1777488021 | 18.89° C | 67% | 1008.6 hPa | 0 mm | - | - | - |
* Rain latest hour (hover to see other rain measurements)
** Current wind speed in m/s (hover to see current wind gust speed)